Location: Igloolik
(69.3800°N, 81.8000°W)
Time: 19:51:36
(UTC-05:00)

Amateur Radio Satellites - All Passes

Search period start: 26 March 2017 19:21
Search period end: 27 March 2017 19:21
Location: Igloolik, 69.3800°N, 81.8000°W

Satellite Date Start Highest point End Downlink Frequencies (MHz)
Time Altitude Azimuth
AO-73 26 Mar 19:22:39 19:27:08 80° 64° (ENE) 19:31:33 145.935
50 SAT 26 Mar 19:24:56 19:26:16 12° 11° (N) 19:27:36 437.505
UKube-1 26 Mar 19:25:40 19:28:31 17° 3° (N) 19:31:24 .
KKS-1 26 Mar 19:29:28 19:33:44 42° 314° (NW) 19:37:58 437.445
ESTCUBE 1 26 Mar 19:31:31 19:35:05 24° 28° (NNE) 19:38:41 437.505/2401.250
BEESAT 26 Mar 19:32:43 19:36:32 24° 338° (NNW) 19:40:22 436.000
XW-2F 26 Mar 19:41:45 19:42:50 11° 285° (WNW) 19:43:56 145.980 - 146.000
LilacSat-2 26 Mar 19:43:40 19:44:29 11° 286° (WNW) 19:45:18 437.200
ITUPSAT 1 26 Mar 19:48:58 19:52:42 23° 342° (NNW) 19:56:26 437.325
MOZHAYETS 4 26 Mar 19:49:07 19:52:45 24° 333° (NNW) 19:56:21
UWE-3 26 Mar 19:50:01 19:54:36 57° 256° (WSW) 19:59:04 435.000/436.395/437.385
SPROUT 26 Mar 19:51:31 19:54:35 19° 20° (NNE) 19:57:38 437.525
HO-68 26 Mar 19:52:11 19:58:50 40° 266° (W) 20:05:32 435.675
O/OREOS (USA 219) 26 Mar 19:53:12 19:57:48 86° 327° (NNW) 20:02:27 437.305
STRAND 1 26 Mar 19:57:10 20:02:08 46° 100° (E) 20:07:04 437.568
LO-87 26 Mar 19:59:43 20:02:46 25° 42° (NE) 20:05:51 145.935 - 145.965
DELFI C3 26 Mar 20:00:33 20:04:28 66° 61° (ENE) 20:08:25 145.870
CUTE-I 26 Mar 20:04:58 20:08:01 15° 288° (WNW) 20:11:05 437.470
STARS 26 Mar 20:05:25 20:09:35 40° 315° (NW) 20:13:45 437.465
YUBILEINY 26 Mar 20:07:35 20:15:33 42° 279° (W) 20:23:30 435.215
XW-2A 26 Mar 20:15:11 20:17:15 15° 277° (W) 20:19:18 145.665 - 145.685
AAUSAT CUBESAT 2 26 Mar 20:18:00 20:21:48 35° 264° (W) 20:25:38 437.432
DX 1 26 Mar 20:20:40 20:23:54 21° 20° (NNE) 20:27:09 434.975-435.025
Oscar 11 26 Mar 20:23:08 20:27:22 54° 256° (WSW) 20:31:39 .
M-CUBED/EXP-1 PRIME 26 Mar 20:23:15 20:27:44 77° 122° (ESE) 20:32:24 437.505
CUBEBUG 2 26 Mar 20:24:45 20:29:00 32° 268° (W) 20:33:12 437.445
UNISAT 6 26 Mar 20:28:30 20:29:02 10° 67° (ENE) 20:29:35 437.425
ZACube-1 26 Mar 20:30:55 20:35:15 44° 261° (W) 20:39:30 437.345
RS-15 26 Mar 20:32:50 20:44:33 53° 224° (SW) 20:56:00 29.354- 29.394
SO-50 26 Mar 20:34:31 20:38:46 39° 200° (SSW) 20:42:59 436.795
SEEDS 26 Mar 20:35:05 20:38:19 21° 275° (W) 20:41:33 437.485
CUBESAT XI-V 26 Mar 20:41:31 20:45:23 27° 328° (NNW) 20:49:15 437.345
VELOX 1 26 Mar 20:43:06 20:46:51 28° 34° (NNE) 20:50:39 145.980
CUTE 1.7 + AOD 2 26 Mar 20:43:08 20:45:50 16° 280° (W) 20:48:33 437.475
50 SAT 26 Mar 20:55:47 20:58:17 19° 33° (NNE) 21:00:48 437.505
AO-73 26 Mar 20:59:44 21:03:48 33° 266° (W) 21:07:49 145.935
UKube-1 26 Mar 21:00:04 21:03:28 23° 26° (NNE) 21:06:52 .
KKS-1 26 Mar 21:06:01 21:09:32 23° 337° (NNW) 21:13:02 437.445
ESTCUBE 1 26 Mar 21:06:54 21:11:13 48° 51° (NE) 21:15:33 437.505/2401.250
BEESAT 26 Mar 21:09:43 21:13:11 20° 2° (N) 21:16:39 436.000
PRISM 26 Mar 21:11:37 21:14:46 20° 86° (E) 21:17:56 437.425
AO-85 26 Mar 21:19:10 21:20:52 12° 126° (SE) 21:22:32 145.980
MOZHAYETS 4 26 Mar 21:25:42 21:28:46 18° 357° (N) 21:31:49
SPROUT 26 Mar 21:25:43 21:29:37 34° 43° (NE) 21:33:31 437.525
ITUPSAT 1 26 Mar 21:25:52 21:29:23 21° 6° (N) 21:32:53 437.325
UWE-3 26 Mar 21:28:37 21:31:58 19° 278° (W) 21:35:16 435.000/436.395/437.385
FO-29 26 Mar 21:31:07 21:36:16 23° 75° (ENE) 21:40:57 435.910
LO-87 26 Mar 21:32:14 21:35:52 75° 64° (ENE) 21:39:33 145.935 - 145.965
O/OREOS (USA 219) 26 Mar 21:32:57 21:37:32 63° 356° (N) 21:42:09 437.305
DELFI C3 26 Mar 21:35:53 21:39:32 36° 263° (W) 21:43:15 145.870
STRAND 1 26 Mar 21:36:31 21:41:39 69° 303° (WNW) 21:46:45 437.568
STARS 26 Mar 21:41:44 21:45:10 22° 337° (NNW) 21:48:34 437.465
HO-68 26 Mar 21:44:22 21:48:48 17° 293° (WNW) 21:53:16 435.675
TIGRISAT 26 Mar 21:53:02 21:56:52 26° 88° (E) 22:00:36 435.000
DX 1 26 Mar 21:55:15 21:59:15 36° 43° (NE) 22:03:18 434.975-435.025
AAUSAT CUBESAT 2 26 Mar 21:57:09 21:58:30 11° 287° (WNW) 21:59:51 437.432
M-CUBED/EXP-1 PRIME 26 Mar 21:57:51 22:02:05 47° 324° (NW) 22:06:31 437.505
Oscar 11 26 Mar 22:01:31 22:04:28 18° 279° (W) 22:07:24 .
UNISAT 6 26 Mar 22:03:15 22:07:17 30° 91° (E) 22:11:13 437.425
YUBILEINY 26 Mar 22:04:22 22:10:09 20° 307° (NW) 22:15:56 435.215
CUBEBUG 2 26 Mar 22:05:40 22:07:05 11° 292° (WNW) 22:08:31 437.445
ZACube-1 26 Mar 22:10:00 22:12:38 15° 283° (WNW) 22:15:14 437.345
SO-50 26 Mar 22:14:55 22:18:25 22° 223° (SW) 22:21:54 436.795
VELOX 1 26 Mar 22:18:25 22:22:48 62° 56° (ENE) 22:27:13 145.980
CUBESAT XI-V 26 Mar 22:18:30 22:21:40 19° 351° (N) 22:24:51 437.345
NANOSAT C BR1 26 Mar 22:26:51 22:28:03 11° 72° (ENE) 22:29:15 145.865
50 SAT 26 Mar 22:27:24 22:30:46 46° 55° (NE) 22:34:09 437.505
EO-79 26 Mar 22:31:10 22:32:57 12° 74° (ENE) 22:34:43 145.935-145.965
UKube-1 26 Mar 22:34:40 22:38:48 44° 49° (NE) 22:42:57 .
AO-73 26 Mar 22:39:58 22:41:23 11° 289° (WNW) 22:42:48 145.935
KKS-1 26 Mar 22:41:53 22:44:58 18° 0° (N) 22:48:02 437.445
ESTCUBE 1 26 Mar 22:43:34 22:48:02 61° 254° (WSW) 22:52:31 437.505/2401.250
RS-15 26 Mar 22:44:40 22:54:26 29° 254° (WSW) 23:04:00 29.354- 29.394
BEESAT 26 Mar 22:45:56 22:49:51 26° 26° (NNE) 22:53:47 436.000
PRISM 26 Mar 22:46:40 22:50:49 65° 108° (ESE) 22:54:58 437.425
AO-85 26 Mar 22:56:43 23:00:13 27° 149° (SSE) 23:03:37 145.980
POLYITAN 1 26 Mar 22:58:51 23:01:41 17° 81° (E) 23:04:30 437.675
SPROUT 26 Mar 23:00:55 23:05:16 88° 59° (ENE) 23:09:37 437.525
MOZHAYETS 4 26 Mar 23:01:19 23:04:44 21° 20° (NNE) 23:08:08
ITUPSAT 1 26 Mar 23:02:06 23:06:09 28° 29° (NNE) 23:10:12 437.325
QB50P2 26 Mar 23:03:24 23:06:26 19° 83° (E) 23:09:28 145.880/145.840
LO-87 26 Mar 23:06:28 23:09:41 29° 266° (W) 23:12:57 145.935 - 145.965
O/OREOS (USA 219) 26 Mar 23:12:42 23:17:20 76° 21° (NNE) 23:21:59 437.305
DELFI C3 26 Mar 23:14:11 23:15:30 11° 286° (WNW) 23:16:49 145.870
DUCHIFAT 1 26 Mar 23:15:11 23:18:13 19° 83° (E) 23:21:14 145.980
STRAND 1 26 Mar 23:15:46 23:20:21 33° 327° (NNW) 23:24:55 437.568
FO-29 26 Mar 23:16:19 23:22:55 57° 101° (E) 23:28:42 435.910
STARS 26 Mar 23:17:22 23:20:23 18° 1° (N) 23:23:23 437.465
TIGRISAT 26 Mar 23:29:40 23:34:15 79° 110° (ESE) 23:38:42 435.000
BUGSAT 1 26 Mar 23:30:35 23:32:42 13° 76° (ENE) 23:34:48 437.445
DX 1 26 Mar 23:30:48 23:35:12 88° 246° (WSW) 23:39:38 434.975-435.025
BEESAT 3 26 Mar 23:31:11 23:33:53 18° 134° (SE) 23:36:36 437.485
AIST 2D 26 Mar 23:31:44 23:34:53 29° 95° (E) 23:38:00 435.315
M-CUBED/EXP-1 PRIME 26 Mar 23:32:11 23:35:57 29° 345° (NNW) 23:39:54 437.505
UNISAT 6 26 Mar 23:39:58 23:44:34 89° 288° (WNW) 23:49:01 437.425
BEESAT 2 26 Mar 23:48:04 23:50:20 15° 129° (SE) 23:52:37 435.950
CUBESAT XI-V 26 Mar 23:54:31 23:57:49 20° 15° (NNE) 00:01:07 437.345
VELOX 1 26 Mar 23:55:12 23:59:29 45° 259° (W) 00:03:47 145.980
50 SAT 27 Mar 00:00:33 00:03:54 45° 257° (WSW) 00:07:17 437.505
NANOSAT C BR1 27 Mar 00:01:11 00:05:06 33° 95° (E) 00:08:58 145.865
YUBILEINY 27 Mar 00:01:42 00:03:24 11° 337° (NNW) 00:05:06 435.215
EO-79 27 Mar 00:05:58 00:09:58 37° 97° (E) 00:13:55 145.935-145.965
UKube-1 27 Mar 00:10:28 00:14:48 66° 252° (WSW) 00:19:08 .
KKS-1 27 Mar 00:16:53 00:20:24 23° 23° (NNE) 00:23:54 437.445
PRISM 27 Mar 00:22:07 00:26:03 42° 311° (NW) 00:30:00 437.425
BEESAT 27 Mar 00:22:20 00:26:57 49° 49° (NE) 00:31:34 436.000
ESTCUBE 1 27 Mar 00:22:21 00:25:44 20° 276° (W) 00:29:07 437.505/2401.250
POLYITAN 1 27 Mar 00:34:13 00:38:26 52° 104° (ESE) 00:42:36 437.675
AO-85 27 Mar 00:36:10 00:40:02 42° 171° (S) 00:43:45 145.980
MOZHAYETS 4 27 Mar 00:36:49 00:41:01 36° 44° (NE) 00:45:13
SPROUT 27 Mar 00:37:52 00:41:41 30° 268° (W) 00:45:31 437.525
ITUPSAT 1 27 Mar 00:38:41 00:43:23 56° 52° (NE) 00:48:05 437.325
QB50P2 27 Mar 00:38:52 00:43:08 58° 105° (ESE) 00:47:20 145.880/145.840
DUCHIFAT 1 27 Mar 00:50:32 00:54:45 58° 105° (ESE) 00:58:57 145.980
STARS 27 Mar 00:52:09 00:55:36 23° 24° (NNE) 00:59:05 437.465
O/OREOS (USA 219) 27 Mar 00:52:14 00:56:46 57° 225° (SW) 01:01:18 437.305
STRAND 1 27 Mar 00:54:31 00:58:31 23° 351° (N) 01:02:31 437.568
RS-15 27 Mar 00:58:33 01:02:12 12° 284° (WNW) 01:05:51 29.354- 29.394
FO-29 27 Mar 01:01:34 01:08:18 66° 307° (NW) 01:14:11 435.910
Oscar 19 27 Mar 01:01:57 01:06:14 25° 86° (E) 01:10:30 437.125/150
AIST 2D 27 Mar 01:04:54 01:08:25 70° 297° (WNW) 01:11:55 435.315
BUGSAT 1 27 Mar 01:05:10 01:09:13 41° 99° (E) 01:13:12 437.445
M-CUBED/EXP-1 PRIME 27 Mar 01:05:58 01:09:36 28° 8° (N) 01:13:25 437.505
TIGRISAT 27 Mar 01:06:31 01:10:46 39° 314° (NW) 01:14:54 435.000
BEESAT 3 27 Mar 01:07:00 01:10:39 34° 157° (SSE) 01:14:20 437.485
DX 1 27 Mar 01:08:08 01:11:57 29° 268° (W) 01:15:48 434.975-435.025
UNISAT 6 27 Mar 01:16:50 01:21:00 35° 317° (NW) 01:25:03 437.425
Gurwin Techsat 1B 27 Mar 01:19:05 01:23:22 24° 84° (E) 01:27:39 435.225
BEESAT 2 27 Mar 01:23:35 01:27:10 31° 152° (SSE) 01:30:46 435.950
CUBESAT XI-V 27 Mar 01:30:09 01:34:12 31° 38° (NE) 01:38:17 437.345
VELOX 1 27 Mar 01:34:24 01:37:04 15° 282° (WNW) 01:39:43 145.980
50 SAT 27 Mar 01:36:14 01:37:50 13° 279° (W) 01:39:26 437.505
NANOSAT C BR1 27 Mar 01:36:56 01:41:13 77° 299° (WNW) 01:45:28 145.865
EO-79 27 Mar 01:41:47 01:46:04 71° 299° (WNW) 01:50:18 145.935-145.965
UKube-1 27 Mar 01:48:17 01:51:37 21° 274° (W) 01:54:58 .
KKS-1 27 Mar 01:51:57 01:56:12 42° 46° (NE) 02:00:27 437.445
AO-7 27 Mar 01:52:31 01:58:01 19° 68° (ENE) 02:03:29 .
PRISM 27 Mar 01:57:30 02:00:39 21° 333° (NNW) 02:03:48 437.425
BEESAT 27 Mar 01:59:56 02:04:43 66° 251° (WSW) 02:09:31 436.000
POLYITAN 1 27 Mar 02:10:09 02:14:19 52° 306° (NW) 02:18:27 437.675
MOZHAYETS 4 27 Mar 02:13:20 02:17:57 88° 254° (WSW) 02:22:33
QB50P2 27 Mar 02:14:49 02:18:57 48° 308° (NW) 02:23:03 145.880/145.840
AO-85 27 Mar 02:16:12 02:19:57 39° 195° (SSW) 02:23:37 145.980
ITUPSAT 1 27 Mar 02:16:36 02:21:20 55° 255° (WSW) 02:26:05 437.325
DUCHIFAT 1 27 Mar 02:26:22 02:30:28 47° 308° (NW) 02:34:32 145.980
STARS 27 Mar 02:27:00 02:31:12 42° 47° (NE) 02:35:26 437.465
O/OREOS (USA 219) 27 Mar 02:31:55 02:35:30 23° 248° (WSW) 02:39:05 437.305
STRAND 1 27 Mar 02:32:26 02:36:31 24° 15° (NNE) 02:40:36 437.568
AIST 2D 27 Mar 02:38:24 02:41:16 23° 318° (NW) 02:44:06 435.315
M-CUBED/EXP-1 PRIME 27 Mar 02:39:29 02:43:22 40° 30° (NNE) 02:47:32 437.505
BUGSAT 1 27 Mar 02:40:36 02:44:50 64° 301° (WNW) 02:48:59 437.445
Oscar 19 27 Mar 02:41:16 02:46:27 69° 109° (ESE) 02:51:38 437.125/150
TIGRISAT 27 Mar 02:43:10 02:46:37 22° 337° (NNW) 02:50:01 435.000
BEESAT 3 27 Mar 02:43:56 02:47:47 45° 179° (S) 02:51:39 437.485
FO-29 27 Mar 02:46:26 02:52:40 38° 334° (NNW) 02:58:14 435.910
ITAMSAT 1 27 Mar 02:49:46 02:54:02 25° 86° (E) 02:58:17 435.822/435.867
UNISAT 6 27 Mar 02:53:27 02:56:49 20° 341° (NNW) 03:00:07 437.425
Gurwin Techsat 1B 27 Mar 02:59:00 03:04:21 63° 107° (ESE) 03:09:39 435.225
BEESAT 2 27 Mar 03:00:33 03:04:25 44° 174° (S) 03:08:18 435.950
CUBESAT XI-V 27 Mar 03:06:34 03:11:10 74° 61° (ENE) 03:15:49 437.345
NANOSAT C BR1 27 Mar 03:12:50 03:16:34 30° 320° (NW) 03:20:18 145.865
EO-79 27 Mar 03:17:43 03:21:25 29° 322° (NW) 03:25:05 145.935-145.965
KKS-1 27 Mar 03:28:08 03:32:38 74° 248° (WSW) 03:37:10 437.445
PRISM 27 Mar 03:32:19 03:34:51 16° 356° (N) 03:37:22 437.425
BEESAT 27 Mar 03:39:34 03:43:22 23° 274° (W) 03:47:11 436.000
YUBILEINY 27 Mar 03:44:42 03:48:39 14° 37° (NE) 03:52:37 435.215
AO-7 27 Mar 03:45:37 03:53:25 42° 95° (E) 04:01:11 .
POLYITAN 1 27 Mar 03:46:04 03:49:30 24° 329° (NNW) 03:52:55 437.675
QB50P2 27 Mar 03:50:43 03:54:05 23° 331° (NNW) 03:57:26 145.880/145.840
MOZHAYETS 4 27 Mar 03:51:38 03:55:41 30° 269° (W) 03:59:44
AO-85 27 Mar 03:56:31 03:59:38 22° 218° (SW) 04:02:43 145.980
ITUPSAT 1 27 Mar 03:56:43 04:00:12 20° 278° (W) 04:03:41 437.325
DUCHIFAT 1 27 Mar 04:02:09 04:05:28 23° 331° (NNW) 04:08:47 145.980
STARS 27 Mar 04:03:00 04:07:27 72° 250° (WSW) 04:11:56 437.465
STRAND 1 27 Mar 04:10:02 04:14:46 38° 38° (NE) 04:19:30 437.568
AIST 2D 27 Mar 04:11:58 04:13:33 13° 341° (NNW) 04:15:08 435.315
M-CUBED/EXP-1 PRIME 27 Mar 04:13:30 04:17:35 89° 41° (NE) 04:22:01 437.505
BUGSAT 1 27 Mar 04:16:07 04:19:43 27° 324° (NW) 04:23:16 437.445
TIGRISAT 27 Mar 04:19:06 04:22:07 18° 1° (N) 04:25:07 435.000
Oscar 19 27 Mar 04:20:47 04:25:46 50° 312° (NW) 04:30:45 437.125/150
BEESAT 3 27 Mar 04:21:14 04:24:56 35° 202° (SSW) 04:28:38 437.485
ITAMSAT 1 27 Mar 04:29:13 04:34:28 66° 109° (ESE) 04:39:39 435.822/435.867
UNISAT 6 27 Mar 04:29:15 04:32:19 18° 4° (N) 04:35:19 437.425
FO-29 27 Mar 04:30:30 04:36:29 31° 359° (N) 04:41:56 435.910
BEESAT 2 27 Mar 04:37:58 04:41:46 39° 197° (SSW) 04:45:34 435.950
Gurwin Techsat 1B 27 Mar 04:39:09 04:44:22 55° 311° (NW) 04:49:33 435.225
CUTE-I 27 Mar 04:43:20 04:45:49 13° 69° (ENE) 04:48:19 437.470
CUBESAT XI-V 27 Mar 04:44:37 04:48:56 38° 264° (W) 04:53:17 437.345
NANOSAT C BR1 27 Mar 04:48:27 04:51:21 18° 343° (NNW) 04:54:15 145.865
EO-79 27 Mar 04:53:21 04:56:13 18° 345° (NNW) 04:59:04 145.935-145.965
PRISM 27 Mar 05:06:06 05:08:59 19° 20° (NNE) 05:11:53 437.425
KKS-1 27 Mar 05:06:14 05:09:55 24° 272° (W) 05:13:39 437.445
HO-68 27 Mar 05:15:08 05:17:58 12° 58° (ENE) 05:20:48 435.675
POLYITAN 1 27 Mar 05:21:31 05:24:13 17° 352° (N) 05:26:55 437.675
XW-2F 27 Mar 05:22:07 05:24:13 14° 80° (E) 05:26:20 145.980 - 146.000
DOVE 4 27 Mar 05:22:34 05:26:57 26° 83° (E) 05:31:22 437.250
LilacSat-2 27 Mar 05:24:22 05:26:43 15° 81° (E) 05:29:02 437.200
QB50P2 27 Mar 05:26:07 05:28:47 16° 354° (N) 05:31:27 145.880/145.840
MOZHAYETS 4 27 Mar 05:33:54 05:34:24 10° 293° (WNW) 05:34:53
YUBILEINY 27 Mar 05:35:30 05:42:29 28° 66° (ENE) 05:49:28 435.215
DUCHIFAT 1 27 Mar 05:37:25 05:40:03 16° 354° (N) 05:42:41 145.980
AO-7 27 Mar 05:38:55 05:47:19 83° 122° (ESE) 05:55:39 .
STARS 27 Mar 05:40:55 05:44:32 24° 272° (W) 05:48:10 437.465
AIST 2D 27 Mar 05:44:49 05:45:34 11° 3° (N) 05:46:19 435.315
NUDT-PHONESAT 27 Mar 05:45:40 05:48:14 17° 84° (E) 05:50:46 437.300
XW-2D 27 Mar 05:48:04 05:50:58 21° 87° (E) 05:53:51 145.860 - 145.880
STRAND 1 27 Mar 05:48:27 05:53:37 83° 62° (ENE) 05:58:49 437.568
M-CUBED/EXP-1 PRIME 27 Mar 05:48:55 05:52:33 31° 257° (WSW) 05:56:26 437.505
BUGSAT 1 27 Mar 05:51:18 05:54:05 17° 347° (NNW) 05:56:50 437.445
KAITUO 1B 27 Mar 05:53:36 05:56:22 19° 86° (E) 05:59:07 145.475/437.950
XW-2B 27 Mar 05:53:59 05:56:58 22° 88° (E) 05:59:57 145.730 - 145.750
TIGRISAT 27 Mar 05:54:05 05:57:38 22° 24° (NNE) 06:01:08 435.000
BEESAT 3 27 Mar 05:58:55 06:01:44 18° 225° (SW) 06:04:33 437.485
Oscar 19 27 Mar 06:00:03 06:04:22 28° 336° (NNW) 06:08:42 437.125/150
XW-2C 27 Mar 06:04:08 06:07:19 25° 91° (E) 06:10:28 145.795 - 145.815
UNISAT 6 27 Mar 06:04:13 06:07:53 24° 28° (NNE) 06:11:29 437.425
ITAMSAT 1 27 Mar 06:08:52 06:13:57 52° 313° (NW) 06:19:00 435.822/435.867
FO-29 27 Mar 06:13:50 06:20:18 36° 24° (NNE) 06:26:10 435.910
BEESAT 2 27 Mar 06:15:40 06:18:50 22° 220° (SW) 06:22:00 435.950
Gurwin Techsat 1B 27 Mar 06:19:03 06:23:38 30° 334° (NNW) 06:28:12 435.225
CUTE-I 27 Mar 06:22:38 06:27:34 35° 93° (E) 06:32:27 437.470
NANOSAT C BR1 27 Mar 06:23:14 06:25:53 16° 6° (N) 06:28:32 145.865
CUBEBUG 2 27 Mar 06:25:17 06:25:59 10° 67° (ENE) 06:26:39 437.445
CUBESAT XI-V 27 Mar 06:25:25 06:27:38 13° 287° (WNW) 06:29:53 437.345
EO-79 27 Mar 06:28:04 06:30:46 17° 8° (N) 06:33:29 145.935-145.965
SEEDS 27 Mar 06:28:05 06:29:29 11° 72° (ENE) 06:30:52 437.485
CUTE 1.7 + AOD 2 27 Mar 06:35:26 06:37:59 15° 78° (ENE) 06:40:32 437.475
PRISM 27 Mar 06:39:44 06:43:25 33° 42° (NE) 06:47:09 437.425
XW-2F 27 Mar 06:55:36 06:59:17 48° 102° (ESE) 07:02:55 145.980 - 146.000
POLYITAN 1 27 Mar 06:55:56 06:58:48 18° 15° (NNE) 07:01:41 437.675
LilacSat-2 27 Mar 06:58:07 07:01:51 53° 103° (ESE) 07:05:34 437.200
DOVE 4 27 Mar 07:00:14 07:05:31 68° 106° (ESE) 07:10:50 437.250
QB50P2 27 Mar 07:00:28 07:03:23 18° 17° (NNE) 07:06:19 145.880/145.840
HO-68 27 Mar 07:02:15 07:08:26 30° 85° (E) 07:14:36 435.675
DUCHIFAT 1 27 Mar 07:11:39 07:14:32 18° 17° (NNE) 07:17:26 145.980
AIST 2D 27 Mar 07:15:38 07:17:38 15° 26° (NNE) 07:19:39 435.315
NUDT-PHONESAT 27 Mar 07:19:11 07:22:54 62° 106° (ESE) 07:26:34 437.300
XW-2A 27 Mar 07:21:00 07:23:52 24° 92° (E) 07:26:42 145.665 - 145.685
XW-2D 27 Mar 07:22:00 07:25:48 73° 110° (ESE) 07:29:34 145.860 - 145.880
UWE-3 27 Mar 07:25:22 07:28:09 16° 77° (ENE) 07:30:53 435.000/436.395/437.385
BUGSAT 1 27 Mar 07:25:31 07:28:14 17° 10° (N) 07:30:57 437.445
KAITUO 1B 27 Mar 07:27:20 07:31:03 70° 108° (ESE) 07:34:45 145.475/437.950
XW-2B 27 Mar 07:27:58 07:31:46 78° 110° (ESE) 07:35:33 145.730 - 145.750
M-CUBED/EXP-1 PRIME 27 Mar 07:28:04 07:28:24 10° 280° (W) 07:28:43 437.505
STRAND 1 27 Mar 07:28:32 07:33:19 37° 265° (W) 07:38:07 437.568
TIGRISAT 27 Mar 07:29:10 07:33:32 41° 47° (NE) 07:37:50 435.000
YUBILEINY 27 Mar 07:29:18 07:37:47 60° 93° (E) 07:46:17 435.215
AO-7 27 Mar 07:31:53 07:40:01 61° 328° (NNW) 07:48:08 .
XW-2C 27 Mar 07:38:13 07:42:01 90° 51° (NE) 07:45:47 145.795 - 145.815
Oscar 19 27 Mar 07:38:37 07:42:33 23° 0° (N) 07:46:31 437.125/150
UNISAT 6 27 Mar 07:39:26 07:43:53 46° 50° (NE) 07:48:16 437.425
AAUSAT CUBESAT 2 27 Mar 07:45:07 07:48:15 20° 85° (E) 07:51:22 437.432
ITAMSAT 1 27 Mar 07:48:17 07:52:43 29° 336° (NNW) 07:57:09 435.822/435.867
Oscar 11 27 Mar 07:56:02 07:58:37 15° 78° (ENE) 08:01:12 .
NANOSAT C BR1 27 Mar 07:57:09 08:00:30 23° 30° (NNE) 08:03:51 145.865
FO-29 27 Mar 07:57:19 08:04:36 59° 48° (NE) 08:11:07 435.910
Gurwin Techsat 1B 27 Mar 07:58:17 08:02:28 24° 358° (N) 08:06:38 435.225
CUBEBUG 2 27 Mar 08:00:05 08:04:08 30° 90° (E) 08:08:03 437.445
EO-79 27 Mar 08:02:01 08:05:28 24° 32° (NNE) 08:08:55 145.935-145.965
SEEDS 27 Mar 08:02:33 08:06:26 35° 95° (E) 08:10:18 437.485
CUTE-I 27 Mar 08:02:49 08:08:15 90° 118° (ESE) 08:13:39 437.470
ZACube-1 27 Mar 08:04:33 08:07:41 19° 82° (E) 08:10:45 437.345
CUTE 1.7 + AOD 2 27 Mar 08:10:44 08:14:51 47° 101° (E) 08:18:56 437.475
PRISM 27 Mar 08:14:20 08:18:27 89° 44° (NE) 08:22:38 437.425
XW-2F 27 Mar 08:29:52 08:33:30 47° 304° (NW) 08:37:07 145.980 - 146.000
POLYITAN 1 27 Mar 08:29:56 08:33:38 29° 38° (NE) 08:37:21 437.675
AO-73 27 Mar 08:32:26 08:36:02 25° 88° (E) 08:39:32 145.935
LilacSat-2 27 Mar 08:32:32 08:36:11 44° 306° (NW) 08:39:48 437.200
QB50P2 27 Mar 08:34:29 08:38:15 30° 40° (NE) 08:42:01 145.880/145.840
DOVE 4 27 Mar 08:38:05 08:43:10 51° 309° (NW) 08:48:19 437.250
DUCHIFAT 1 27 Mar 08:45:32 08:49:17 30° 40° (NE) 08:53:01 145.980
AIST 2D 27 Mar 08:46:55 08:50:04 30° 48° (NE) 08:53:13 435.315
HO-68 27 Mar 08:50:19 08:57:30 67° 110° (ESE) 09:04:39 435.675
NUDT-PHONESAT 27 Mar 08:53:17 08:56:46 38° 308° (NW) 09:00:14 437.300
XW-2A 27 Mar 08:53:36 08:57:04 84° 297° (WNW) 09:00:29 145.665 - 145.685
XW-2D 27 Mar 08:56:23 08:59:51 34° 311° (NW) 09:03:18 145.860 - 145.880
DELFI C3 27 Mar 08:58:23 09:01:02 17° 82° (E) 09:03:41 145.870
BUGSAT 1 27 Mar 08:59:04 09:02:34 25° 33° (NNE) 09:06:03 437.445
UWE-3 27 Mar 09:01:22 09:05:43 48° 101° (E) 09:09:54 435.000/436.395/437.385
KAITUO 1B 27 Mar 09:01:32 09:04:58 35° 310° (NW) 09:08:21 145.475/437.950
XW-2B 27 Mar 09:02:22 09:05:48 33° 312° (NW) 09:09:12 145.730 - 145.750
TIGRISAT 27 Mar 09:05:23 09:10:05 77° 249° (WSW) 09:14:42 435.000
STRAND 1 27 Mar 09:11:23 09:14:01 14° 289° (WNW) 09:16:40 437.568
XW-2C 27 Mar 09:12:38 09:15:58 30° 315° (NW) 09:19:16 145.795 - 145.815
PCSat 27 Mar 09:15:35 09:18:37 15° 112° (ESE) 09:21:39 145.827
UNISAT 6 27 Mar 09:15:54 09:20:33 67° 252° (WSW) 09:25:09 437.425
Oscar 19 27 Mar 09:16:26 09:20:45 28° 24° (NNE) 09:25:05 437.125/150
AAUSAT CUBESAT 2 27 Mar 09:20:20 09:24:29 65° 107° (ESE) 09:28:37 437.432
AO-7 27 Mar 09:24:09 09:31:59 48° 355° (N) 09:39:47 .
YUBILEINY 27 Mar 09:25:54 09:34:39 72° 301° (WNW) 09:43:25 435.215
ITAMSAT 1 27 Mar 09:26:59 09:31:05 24° 360° (N) 09:35:10 435.822/435.867
NANOSAT C BR1 27 Mar 09:31:27 09:35:34 47° 52° (NE) 09:39:41 145.865
Oscar 11 27 Mar 09:31:38 09:35:49 46° 101° (E) 09:39:59 .
EO-79 27 Mar 09:36:27 09:40:38 52° 54° (NE) 09:44:48 145.935-145.965
CUBEBUG 2 27 Mar 09:36:42 09:41:19 89° 298° (WNW) 09:45:46 437.445
Gurwin Techsat 1B 27 Mar 09:36:46 09:41:16 28° 23° (NNE) 09:45:46 435.225
SEEDS 27 Mar 09:38:17 09:42:28 73° 298° (WNW) 09:46:40 437.485
ZACube-1 27 Mar 09:40:33 09:44:53 59° 105° (ESE) 09:49:04 437.345
FO-29 27 Mar 09:42:07 09:49:40 72° 251° (WSW) 09:56:28 435.910
CUTE-I 27 Mar 09:43:01 09:48:04 42° 320° (NW) 09:53:04 437.470
CUTE 1.7 + AOD 2 27 Mar 09:46:42 09:50:50 55° 303° (WNW) 09:54:58 437.475
PRISM 27 Mar 09:50:42 09:54:15 28° 267° (W) 09:57:51 437.425
XW-2F 27 Mar 10:04:16 10:07:03 20° 327° (NNW) 10:09:50 145.980 - 146.000
POLYITAN 1 27 Mar 10:04:43 10:09:00 71° 61° (ENE) 10:13:18 437.675
LilacSat-2 27 Mar 10:07:04 10:09:49 19° 328° (NNW) 10:12:35 437.200
AO-73 27 Mar 10:08:35 10:12:57 80° 112° (ESE) 10:17:10 145.935
QB50P2 27 Mar 10:09:23 10:13:42 77° 61° (ENE) 10:18:00 145.880/145.840
DOVE 4 27 Mar 10:15:44 10:20:07 28° 332° (NNW) 10:24:33 437.250
LO-87 27 Mar 10:19:05 10:21:22 15° 82° (E) 10:23:37 145.935 - 145.965
AIST 2D 27 Mar 10:19:33 10:23:07 78° 250° (WSW) 10:26:40 435.315
DUCHIFAT 1 27 Mar 10:20:20 10:24:36 77° 64° (ENE) 10:28:53 145.980
ESTCUBE 1 27 Mar 10:21:49 10:24:21 15° 76° (ENE) 10:26:52 437.505/2401.250
XW-2A 27 Mar 10:26:38 10:29:32 26° 316° (NW) 10:32:25 145.665 - 145.685
NUDT-PHONESAT 27 Mar 10:27:28 10:30:00 18° 331° (NNW) 10:32:31 437.300
XW-2D 27 Mar 10:30:49 10:33:16 17° 334° (NNW) 10:35:44 145.860 - 145.880
DELFI C3 27 Mar 10:32:45 10:36:40 55° 104° (ESE) 10:40:37 145.870
BUGSAT 1 27 Mar 10:33:11 10:37:22 56° 56° (NE) 10:41:33 437.445
KAITUO 1B 27 Mar 10:35:48 10:38:14 17° 333° (NNW) 10:40:39 145.475/437.950
XW-2B 27 Mar 10:36:47 10:39:11 16° 335° (NNW) 10:41:36 145.730 - 145.750
UWE-3 27 Mar 10:37:57 10:42:20 57° 304° (NW) 10:46:36 435.000/436.395/437.385
HO-68 27 Mar 10:38:19 10:45:24 65° 315° (NW) 10:52:28 435.675
TIGRISAT 27 Mar 10:43:30 10:47:27 26° 272° (W) 10:51:20 435.000
XW-2C 27 Mar 10:47:02 10:49:19 16° 337° (NNW) 10:51:36 145.795 - 145.815
UNISAT 6 27 Mar 10:54:23 10:58:04 23° 275° (W) 11:01:44 437.425
Oscar 19 27 Mar 10:54:24 10:59:21 50° 48° (NE) 11:04:20 437.125/150
PCSat 27 Mar 10:55:49 11:00:42 35° 135° (SE) 11:05:36 145.827
AAUSAT CUBESAT 2 27 Mar 10:55:59 10:59:53 42° 309° (NW) 11:03:48 437.432
ITAMSAT 1 27 Mar 11:05:00 11:09:27 29° 24° (NNE) 11:13:53 435.822/435.867
NANOSAT C BR1 27 Mar 11:07:04 11:11:19 58° 255° (WSW) 11:15:33 145.865
Oscar 11 27 Mar 11:07:53 11:12:09 57° 303° (WNW) 11:16:23 .
EO-79 27 Mar 11:12:17 11:16:29 53° 256° (WSW) 11:20:43 145.935-145.965
CUBEBUG 2 27 Mar 11:13:29 11:17:39 35° 317° (NW) 11:21:42 437.445
SEEDS 27 Mar 11:14:11 11:17:47 28° 320° (NW) 11:21:22 437.485
Gurwin Techsat 1B 27 Mar 11:15:19 11:20:27 49° 46° (NE) 11:25:36 435.225
AO-7 27 Mar 11:15:50 11:23:49 53° 21° (NNE) 11:31:47 .
RS-15 27 Mar 11:16:40 11:25:05 23° 96° (E) 11:33:34 29.354- 29.394
ZACube-1 27 Mar 11:17:00 11:21:11 47° 308° (NW) 11:25:16 437.345
CUTE 1.7 + AOD 2 27 Mar 11:22:43 11:26:06 24° 326° (NW) 11:29:30 437.475
CUTE-I 27 Mar 11:22:48 11:27:12 27° 344° (NNW) 11:31:38 437.470
YUBILEINY 27 Mar 11:24:45 11:32:59 43° 330° (NNW) 11:41:13 435.215
FO-29 27 Mar 11:29:07 11:35:45 33° 275° (W) 11:41:51 435.910
VELOX 1 27 Mar 11:30:33 11:33:37 18° 81° (E) 11:36:41 145.980
XW-2F 27 Mar 11:38:24 11:40:08 13° 350° (N) 11:41:52 145.980 - 146.000
POLYITAN 1 27 Mar 11:41:07 11:45:08 37° 263° (W) 11:49:09 437.675
LilacSat-2 27 Mar 11:41:16 11:43:02 13° 351° (N) 11:44:47 437.200
UKube-1 27 Mar 11:44:21 11:45:31 11° 72° (ENE) 11:46:41 .
AO-73 27 Mar 11:44:59 11:49:00 37° 314° (NW) 11:52:55 145.935
QB50P2 27 Mar 11:45:58 11:49:53 34° 265° (W) 11:53:50 145.880/145.840
LO-87 27 Mar 11:51:59 11:55:36 54° 104° (ESE) 11:59:13 145.935 - 145.965
DOVE 4 27 Mar 11:52:47 11:56:36 21° 355° (N) 12:00:28 437.250
AIST 2D 27 Mar 11:54:10 11:56:54 20° 272° (W) 11:59:38 435.315
DUCHIFAT 1 27 Mar 11:56:47 12:00:41 33° 265° (W) 12:04:35 145.980
ESTCUBE 1 27 Mar 11:58:01 12:02:20 42° 99° (E) 12:06:39 437.505/2401.250
XW-2A 27 Mar 11:59:46 12:01:27 13° 338° (NNW) 12:03:07 145.665 - 145.685
NUDT-PHONESAT 27 Mar 12:01:17 12:02:49 12° 354° (N) 12:04:19 437.300
XW-2D 27 Mar 12:04:43 12:06:20 12° 357° (N) 12:07:55 145.860 - 145.880
DELFI C3 27 Mar 12:07:41 12:11:30 46° 306° (NW) 12:15:20 145.870
SPROUT 27 Mar 12:08:09 12:11:46 25° 89° (E) 12:15:22 437.525
BUGSAT 1 27 Mar 12:08:43 12:12:52 48° 258° (WSW) 12:17:02 437.445
KAITUO 1B 27 Mar 12:09:38 12:11:07 12° 356° (N) 12:12:36 145.475/437.950
XW-2B 27 Mar 12:10:39 12:12:14 12° 358° (N) 12:13:50 145.730 - 145.750
UWE-3 27 Mar 12:14:31 12:18:13 25° 327° (NNW) 12:21:48 435.000/436.395/437.385
XW-2C 27 Mar 12:20:45 12:22:20 12° 1° (N) 12:23:55 145.795 - 145.815
HO-68 27 Mar 12:25:50 12:32:27 42° 340° (NNW) 12:39:03 435.675
AAUSAT CUBESAT 2 27 Mar 12:31:35 12:34:38 20° 332° (NNW) 12:37:42 437.432
Oscar 19 27 Mar 12:33:32 12:38:40 68° 251° (WSW) 12:43:50 437.125/150
PCSat 27 Mar 12:38:10 12:43:31 61° 159° (SSE) 12:48:54 145.827
DX 1 27 Mar 12:40:44 12:44:25 25° 90° (E) 12:48:06 434.975-435.025
ITAMSAT 1 27 Mar 12:43:08 12:48:12 52° 48° (NE) 12:53:17 435.822/435.867
50 SAT 27 Mar 12:43:32 12:46:39 28° 95° (E) 12:49:44 437.505
Oscar 11 27 Mar 12:44:11 12:47:44 25° 326° (NW) 12:51:16 .
NANOSAT C BR1 27 Mar 12:44:50 12:47:53 19° 277° (W) 12:50:58 145.865
SEEDS 27 Mar 12:49:50 12:52:30 17° 343° (NNW) 12:55:11 437.485
CUBEBUG 2 27 Mar 12:50:00 12:53:21 20° 340° (NNW) 12:56:38 437.445
EO-79 27 Mar 12:50:20 12:53:13 17° 279° (W) 12:56:05 145.935-145.965
ZACube-1 27 Mar 12:53:22 12:56:46 22° 331° (NNW) 13:00:06 437.345
Gurwin Techsat 1B 27 Mar 12:55:01 13:00:21 72° 250° (WSW) 13:05:43 435.225
CUTE 1.7 + AOD 2 27 Mar 12:58:20 13:00:53 16° 349° (N) 13:03:25 437.475
CUTE-I 27 Mar 13:01:48 13:06:05 25° 8° (N) 13:10:23 437.470
VELOX 1 27 Mar 13:06:39 13:11:03 53° 104° (ESE) 13:15:27 145.980
AO-7 27 Mar 13:07:50 13:16:10 80° 48° (NE) 13:24:30 .
XW-2F 27 Mar 13:11:15 13:13:04 13° 13° (NNE) 13:14:52 145.980 - 146.000
LilacSat-2 27 Mar 13:14:09 13:16:05 14° 14° (NNE) 13:18:01 437.200
UKube-1 27 Mar 13:18:57 13:22:54 33° 95° (E) 13:26:51 .
FO-29 27 Mar 13:19:24 13:23:05 14° 300° (WNW) 13:26:35 435.910
POLYITAN 1 27 Mar 13:20:20 13:22:09 12° 286° (WNW) 13:23:59 437.675
AO-73 27 Mar 13:21:16 13:24:25 20° 337° (NNW) 13:27:30 145.935
RS-15 27 Mar 13:23:09 13:34:18 44° 126° (SE) 13:45:33 29.354- 29.394
YUBILEINY 27 Mar 13:24:23 13:32:15 36° 1° (N) 13:40:09 435.215
LO-87 27 Mar 13:25:34 13:29:05 42° 306° (NW) 13:32:34 145.935 - 145.965
QB50P2 27 Mar 13:25:38 13:26:59 11° 288° (WNW) 13:28:20 145.880/145.840
DOVE 4 27 Mar 13:28:59 13:32:59 24° 19° (NNE) 13:37:06 437.250
XW-2A 27 Mar 13:32:31 13:33:03 10° 0° (N) 13:33:34 145.665 - 145.685
NUDT-PHONESAT 27 Mar 13:33:38 13:35:31 14° 17° (NNE) 13:37:25 437.300
ESTCUBE 1 27 Mar 13:34:56 13:39:26 66° 302° (WNW) 13:43:55 437.505/2401.250
DUCHIFAT 1 27 Mar 13:36:24 13:37:39 11° 288° (WNW) 13:38:55 145.980
XW-2D 27 Mar 13:37:11 13:39:19 15° 20° (NNE) 13:41:27 145.860 - 145.880
KAITUO 1B 27 Mar 13:41:56 13:43:56 14° 19° (NNE) 13:45:56 145.475/437.950
DELFI C3 27 Mar 13:42:40 13:45:39 21° 329° (NNW) 13:48:38 145.870
XW-2B 27 Mar 13:43:02 13:45:14 15° 21° (NNE) 13:47:26 145.730 - 145.750
SPROUT 27 Mar 13:43:58 13:48:20 80° 112° (ESE) 13:52:39 437.525
BEESAT 27 Mar 13:45:45 13:48:30 15° 76° (ENE) 13:51:14 436.000
BUGSAT 1 27 Mar 13:46:35 13:49:15 16° 280° (W) 13:51:53 437.445
UWE-3 27 Mar 13:50:38 13:53:34 17° 350° (N) 13:56:28 435.000/436.395/437.385
XW-2C 27 Mar 13:53:02 13:55:22 16° 23° (NNE) 13:57:41 145.795 - 145.815
MOZHAYETS 4 27 Mar 13:55:08 13:56:16 11° 69° (ENE) 13:57:24
ITUPSAT 1 27 Mar 14:02:27 14:05:42 18° 80° (E) 14:08:56 437.325
AAUSAT CUBESAT 2 27 Mar 14:06:39 14:08:57 15° 355° (N) 14:11:16 437.432
HO-68 27 Mar 14:12:37 14:19:04 38° 7° (N) 14:25:32 435.675
Oscar 19 27 Mar 14:14:41 14:18:54 25° 274° (W) 14:23:09 437.125/150
50 SAT 27 Mar 14:16:31 14:20:02 74° 297° (WNW) 14:23:33 437.505
DX 1 27 Mar 14:16:50 14:21:17 78° 113° (ESE) 14:25:42 434.975-435.025
Oscar 11 27 Mar 14:20:05 14:22:49 17° 349° (N) 14:25:34 .
PCSat 27 Mar 14:21:18 14:26:44 70° 184° (S) 14:32:10 145.827
ITAMSAT 1 27 Mar 14:22:28 14:27:41 67° 250° (WSW) 14:32:57 435.822/435.867
SEEDS 27 Mar 14:24:34 14:26:58 15° 6° (N) 14:29:22 437.485
CUBEBUG 2 27 Mar 14:25:42 14:28:43 17° 4° (N) 14:31:42 437.445
ZACube-1 27 Mar 14:29:13 14:31:56 16° 354° (N) 14:34:36 437.345
CUTE 1.7 + AOD 2 27 Mar 14:32:53 14:35:28 16° 13° (NNE) 14:38:03 437.475
Gurwin Techsat 1B 27 Mar 14:36:40 14:41:11 27° 273° (W) 14:45:44 435.225
CUTE-I 27 Mar 14:40:17 14:45:06 34° 32° (NNE) 14:49:55 437.470
VELOX 1 27 Mar 14:43:15 14:47:37 54° 307° (NW) 14:52:00 145.980
XW-2F 27 Mar 14:43:17 14:46:11 21° 35° (NE) 14:49:04 145.980 - 146.000
LilacSat-2 27 Mar 14:46:21 14:49:22 22° 37° (NE) 14:52:21 437.200
UKube-1 27 Mar 14:55:00 14:59:23 81° 298° (WNW) 15:03:45 .
AO-73 27 Mar 14:56:48 14:59:27 16° 0° (N) 15:02:03 145.935
LO-87 27 Mar 14:59:18 15:01:53 18° 328° (NNW) 15:04:28 145.935 - 145.965
AO-7 27 Mar 15:01:22 15:09:32 56° 254° (WSW) 15:17:43 .
XW-2A 27 Mar 15:02:54 15:04:39 13° 23° (NNE) 15:06:23 145.665 - 145.685
DOVE 4 27 Mar 15:05:03 15:09:42 39° 42° (NE) 15:14:33 437.250
NUDT-PHONESAT 27 Mar 15:05:28 15:08:29 23° 39° (NE) 15:11:29 437.300
KKS-1 27 Mar 15:05:53 15:07:08 11° 71° (ENE) 15:08:23 437.445
XW-2D 27 Mar 15:09:23 15:12:37 27° 42° (NE) 15:15:49 145.860 - 145.880
ESTCUBE 1 27 Mar 15:11:53 15:15:45 29° 325° (NW) 15:19:37 437.505/2401.250
KAITUO 1B 27 Mar 15:13:56 15:17:02 25° 41° (NE) 15:20:08 145.475/437.950
XW-2B 27 Mar 15:15:17 15:18:33 28° 43° (NE) 15:21:48 145.730 - 145.750
DELFI C3 27 Mar 15:17:16 15:19:21 14° 352° (N) 15:21:27 145.870
SPROUT 27 Mar 15:20:04 15:24:03 37° 314° (NW) 15:28:03 437.525
BEESAT 27 Mar 15:23:00 15:27:34 42° 99° (E) 15:32:06 436.000
YUBILEINY 27 Mar 15:23:12 15:31:29 44° 32° (NNE) 15:39:46 435.215
XW-2C 27 Mar 15:25:22 15:28:44 30° 46° (NE) 15:32:05 145.795 - 145.815
UWE-3 27 Mar 15:25:45 15:28:47 18° 14° (NNE) 15:31:47 435.000/436.395/437.385
MOZHAYETS 4 27 Mar 15:30:49 15:34:55 31° 92° (E) 15:39:01
RS-15 27 Mar 15:33:12 15:45:17 66° 156° (SSE) 15:57:23 29.354- 29.394
STARS 27 Mar 15:39:17 15:40:23 11° 71° (ENE) 15:41:29 437.465
ITUPSAT 1 27 Mar 15:39:58 15:44:39 50° 103° (ESE) 15:49:18 437.325
AAUSAT CUBESAT 2 27 Mar 15:40:33 15:43:13 17° 18° (NNE) 15:45:52 437.432
50 SAT 27 Mar 15:49:49 15:52:43 24° 319° (NW) 15:55:38 437.505
DX 1 27 Mar 15:53:12 15:57:19 40° 315° (NW) 16:01:26 434.975-435.025
Oscar 11 27 Mar 15:54:57 15:57:43 17° 12° (NNE) 16:00:29 .
SEEDS 27 Mar 15:58:22 16:01:32 21° 30° (NNE) 16:04:42 437.485
HO-68 27 Mar 15:59:00 16:05:49 50° 32° (NNE) 16:12:41 435.675
CUBEBUG 2 27 Mar 16:00:32 16:04:11 23° 27° (NNE) 16:07:46 437.445
SO-50 27 Mar 16:00:36 16:04:16 24° 139° (SE) 16:07:55 436.795
ITAMSAT 1 27 Mar 16:03:47 16:08:05 25° 274° (W) 16:12:24 435.822/435.867
ZACube-1 27 Mar 16:03:58 16:06:58 18° 18° (NNE) 16:09:57 437.345
PCSat 27 Mar 16:04:34 16:09:52 53° 209° (SSW) 16:15:08 145.827
CUTE 1.7 + AOD 2 27 Mar 16:06:49 16:10:17 25° 36° (NE) 16:13:44 437.475
XW-2F 27 Mar 16:16:06 16:19:47 52° 57° (ENE) 16:23:28 145.980 - 146.000
CUTE-I 27 Mar 16:19:17 16:24:39 69° 56° (NE) 16:30:01 437.470
LilacSat-2 27 Mar 16:19:23 16:23:08 57° 59° (ENE) 16:26:54 437.200
VELOX 1 27 Mar 16:19:48 16:23:29 26° 329° (NNW) 16:27:10 145.980
CUBESAT XI-V 27 Mar 16:25:43 16:29:39 26° 88° (E) 16:33:34 437.345
UKube-1 27 Mar 16:31:12 16:35:05 32° 320° (NW) 16:38:58 .
AO-73 27 Mar 16:31:19 16:34:30 20° 24° (NNE) 16:37:39 145.935
LO-87 27 Mar 16:32:46 16:34:16 12° 351° (N) 16:35:45 145.935 - 145.965
XW-2A 27 Mar 16:33:37 16:36:35 27° 45° (NE) 16:39:32 145.665 - 145.685
NUDT-PHONESAT 27 Mar 16:38:16 16:41:58 64° 61° (ENE) 16:45:41 437.300
KKS-1 27 Mar 16:41:02 16:45:07 32° 94° (E) 16:49:11 437.445
DOVE 4 27 Mar 16:42:03 16:47:03 88° 65° (ENE) 16:52:21 437.250
XW-2D 27 Mar 16:42:39 16:46:27 76° 64° (ENE) 16:50:15 145.860 - 145.880
KAITUO 1B 27 Mar 16:46:57 16:50:41 72° 63° (ENE) 16:54:24 145.475/437.950
ESTCUBE 1 27 Mar 16:48:26 16:51:33 19° 348° (NNW) 16:54:41 437.505/2401.250
XW-2B 27 Mar 16:48:37 16:52:26 81° 63° (ENE) 16:56:14 145.730 - 145.750
DELFI C3 27 Mar 16:50:38 16:52:55 15° 15° (NNE) 16:55:13 145.870
SPROUT 27 Mar 16:56:00 16:59:10 20° 337° (NNW) 17:02:20 437.525
AO-7 27 Mar 16:57:37 17:04:18 26° 281° (W) 17:11:01 .
O/OREOS (USA 219) 27 Mar 16:58:03 17:01:43 24° 113° (ESE) 17:05:25 437.305
XW-2C 27 Mar 16:58:53 17:02:41 87° 247° (WSW) 17:06:31 145.795 - 145.815
UWE-3 27 Mar 17:00:20 17:04:13 28° 37° (NE) 17:08:02 435.000/436.395/437.385
BEESAT 27 Mar 17:00:54 17:05:41 70° 302° (WNW) 17:10:26 436.000
MOZHAYETS 4 27 Mar 17:08:00 17:12:37 87° 291° (WNW) 17:17:11
STARS 27 Mar 17:14:07 17:18:09 32° 94° (E) 17:22:08 437.465
AAUSAT CUBESAT 2 27 Mar 17:14:10 17:17:44 29° 41° (NE) 17:21:19 437.432
ITUPSAT 1 27 Mar 17:17:57 17:22:42 60° 305° (NW) 17:27:23 437.325
YUBILEINY 27 Mar 17:20:55 17:29:42 76° 62° (ENE) 17:38:26 435.215
50 SAT 27 Mar 17:23:08 17:24:53 13° 341° (NNW) 17:26:37 437.505
Oscar 11 27 Mar 17:29:13 17:32:49 26° 36° (NE) 17:36:25 .
DX 1 27 Mar 17:29:23 17:32:44 22° 337° (NNW) 17:36:05 434.975-435.025
SEEDS 27 Mar 17:32:34 17:36:32 45° 52° (NE) 17:40:33 437.485
CUBEBUG 2 27 Mar 17:35:34 17:40:03 44° 50° (NE) 17:44:25 437.445
ZACube-1 27 Mar 17:38:24 17:42:19 31° 41° (NE) 17:46:10 437.345
SO-50 27 Mar 17:39:40 17:43:59 41° 163° (SSE) 17:48:15 436.795
CUTE 1.7 + AOD 2 27 Mar 17:41:26 17:45:36 59° 58° (ENE) 17:49:45 437.475
RS-15 27 Mar 17:44:55 17:57:11 72° 187° (S) 18:09:18 29.354- 29.394
STRAND 1 27 Mar 17:45:10 17:47:06 12° 68° (ENE) 17:49:00 437.568
HO-68 27 Mar 17:46:04 17:53:15 87° 57° (ENE) 18:00:28 435.675
PCSat 27 Mar 17:47:57 17:52:29 28° 232° (SW) 17:57:01 145.827
XW-2F 27 Mar 17:50:26 17:54:05 43° 260° (W) 17:57:43 145.980 - 146.000
LilacSat-2 27 Mar 17:53:59 17:57:38 40° 261° (W) 18:01:15 437.200
VELOX 1 27 Mar 17:55:51 17:58:53 18° 353° (N) 18:01:55 145.980
CUTE-I 27 Mar 17:59:48 18:05:01 49° 259° (W) 18:10:16 437.470
CUBESAT XI-V 27 Mar 18:03:04 18:07:44 78° 110° (ESE) 18:12:24 437.345
LO-87 27 Mar 18:04:49 18:06:30 13° 14° (NNE) 18:08:10 145.935 - 145.965
XW-2A 27 Mar 18:05:36 18:09:05 88° 67° (ENE) 18:12:33 145.665 - 145.685
AO-73 27 Mar 18:05:50 18:09:55 37° 46° (NE) 18:13:56 145.935
UKube-1 27 Mar 18:07:07 18:10:14 20° 343° (NNW) 18:13:21 .
NUDT-PHONESAT 27 Mar 18:12:42 18:16:10 35° 263° (W) 18:19:38 437.300
KKS-1 27 Mar 18:17:38 18:22:10 85° 297° (WNW) 18:26:42 437.445
XW-2D 27 Mar 18:17:40 18:21:02 30° 266° (W) 18:24:25 145.860 - 145.880
DOVE 4 27 Mar 18:20:46 18:25:19 35° 269° (W) 18:30:06 437.250
KAITUO 1B 27 Mar 18:21:41 18:25:03 31° 265° (W) 18:28:25 145.475/437.950
DELFI C3 27 Mar 18:23:28 18:26:43 25° 38° (NE) 18:29:59 145.870
XW-2B 27 Mar 18:23:44 18:27:03 28° 267° (W) 18:30:23 145.730 - 145.750
ESTCUBE 1 27 Mar 18:24:04 18:27:10 19° 11° (N) 18:30:15 437.505/2401.250
SPROUT 27 Mar 18:31:15 18:33:55 16° 0° (N) 18:36:35 437.525
XW-2C 27 Mar 18:34:15 18:37:25 24° 270° (W) 18:40:35 145.795 - 145.815
UWE-3 27 Mar 18:35:37 18:40:11 64° 59° (ENE) 18:44:39 435.000/436.395/437.385
O/OREOS (USA 219) 27 Mar 18:35:58 18:40:30 61° 137° (SE) 18:45:03 437.305
BEESAT 27 Mar 18:38:48 18:43:01 32° 325° (NW) 18:47:13 436.000
MOZHAYETS 4 27 Mar 18:45:20 18:49:29 35° 318° (NW) 18:53:37
M-CUBED/EXP-1 PRIME 27 Mar 18:47:06 18:50:58 27° 100° (E) 18:54:55 437.505
AAUSAT CUBESAT 2 27 Mar 18:48:43 18:52:50 77° 64° (ENE) 18:56:59 437.432
STARS 27 Mar 18:50:30 18:54:59 85° 295° (WNW) 18:59:26 437.465
50 SAT 27 Mar 18:55:39 18:56:46 11° 4° (N) 18:57:52 437.505
ITUPSAT 1 27 Mar 18:55:51 18:59:58 29° 329° (NNW) 19:04:04 437.325
AO-7 27 Mar 18:58:50 19:00:46 11° 310° (NW) 19:02:41 .
Oscar 11 27 Mar 19:04:11 19:08:27 61° 59° (ENE) 19:12:44 .
DX 1 27 Mar 19:04:51 19:07:47 18° 1° (N) 19:10:43 434.975-435.025
SEEDS 27 Mar 19:08:06 19:12:14 60° 255° (WSW) 19:16:24 437.485
CUBEBUG 2 27 Mar 19:11:50 19:16:35 71° 252° (WSW) 19:21:13 437.445
